• In Netherlands
  • List of Countries
  • For 7 days
  • Water Temperature
  • Satellite Maps
  • Weather Map
  • Weather Widgets
  • user-avatar
    Login

    Hourly Weather Lezhe

    Today, 24 May, Wednesday

    Time Temperature Precipitation Wind Pressure Humidity
    00:00 +14°C° 0.1 mm 1 mps 738 mmHg 90%
    01:00 +14°C° 0.1 mm 1 mps 738 mmHg 90%
    02:00 +14°C° 0.1 mm 1 mps 738 mmHg 91%
    03:00 +13°C° 0.1 mm 1 mps 738 mmHg 91%
    04:00 +13°C° 0.1 mm 1 mps 737 mmHg 92%
    05:00 +15°C° 0.1 mm 1 mps 738 mmHg 84%
    06:00 +19°C° 0.1 mm 1 mps 738 mmHg 77%
    07:00 +21°C° 0.1 mm 1 mps 738 mmHg 70%
    08:00 +22°C° 0.1 mm 1 mps 738 mmHg 66%
    09:00 +23°C° 0.1 mm 1 mps 738 mmHg 61%
    10:00 +24°C° 0.1 mm 1 mps 738 mmHg 57%
    11:00 +25°C° 0.5 mm 2 mps 738 mmHg 58%
    12:00 +25°C° 0.5 mm 2 mps 737 mmHg 59%
    13:00 +25°C° 0.5 mm 3 mps 737 mmHg 60%
    14:00 +25°C° 0.7 mm 2 mps 737 mmHg 63%
    15:00 +24°C° 0.7 mm 2 mps 737 mmHg 65%
    16:00 +24°C° 0.7 mm 2 mps 736 mmHg 67%
    17:00 +21°C° 0.5 mm 2 mps 736 mmHg 75%
    18:00 +19°C° 0.5 mm 1 mps 736 mmHg 83%
    19:00 +16°C° 0.5 mm 1 mps 736 mmHg 91%
    20:00 +16°C° 0.3 mm 1 mps 737 mmHg 91%
    21:00 +16°C° 0.3 mm 1 mps 737 mmHg 92%
    22:00 +15°C° 0.3 mm 1 mps 737 mmHg 93%
    23:00 +15°C° 0.6 mm 1 mps 737 mmHg 93%

    Tomorrow, 25 May, Thursday

    Time Temperature Precipitation Wind Pressure Humidity
    00:00 +15°C° 0.6 mm 1 mps 737 mmHg 93%
    01:00 +15°C° 0.6 mm 1 mps 737 mmHg 93%
    02:00 +15°C° 0.5 mm 1 mps 737 mmHg 93%
    03:00 +15°C° 0.5 mm 1 mps 737 mmHg 92%
    04:00 +15°C° 0.5 mm 2 mps 736 mmHg 92%
    05:00 +16°C° 0.2 mm 2 mps 736 mmHg 88%
    06:00 +17°C° 0.2 mm 2 mps 737 mmHg 85%
    07:00 +18°C° 0.2 mm 1 mps 737 mmHg 81%
    08:00 +20°C° 0 mm 1 mps 737 mmHg 71%
    09:00 +22°C° 0 mm 1 mps 736 mmHg 61%
    10:00 +24°C° 0 mm 1 mps 736 mmHg 51%
    11:00 +24°C° 0.2 mm 2 mps 736 mmHg 52%
    12:00 +24°C° 0.2 mm 2 mps 736 mmHg 52%
    13:00 +24°C° 0.2 mm 3 mps 736 mmHg 53%
    14:00 +22°C° 0.4 mm 3 mps 735 mmHg 58%
    15:00 +21°C° 0.4 mm 3 mps 735 mmHg 63%
    16:00 +20°C° 0.4 mm 3 mps 735 mmHg 68%
    17:00 +19°C° 0.3 mm 3 mps 735 mmHg 74%
    18:00 +18°C° 0.3 mm 2 mps 735 mmHg 80%
    19:00 +16°C° 0.3 mm 2 mps 735 mmHg 85%
    20:00 +15°C° 0.2 mm 2 mps 735 mmHg 86%
    21:00 +15°C° 0.2 mm 2 mps 736 mmHg 87%
    22:00 +14°C° 0.2 mm 2 mps 736 mmHg 88%
    23:00 +13°C° 0 mm 2 mps 736 mmHg 88%

    Day after tomorrow, 26 May, Friday

    Time Temperature Precipitation Wind Pressure Humidity
    00:00 +13°C° 0 mm 2 mps 736 mmHg 88%
    01:00 +13°C° 0 mm 2 mps 736 mmHg 88%
    02:00 +12°C° 0 mm 2 mps 735 mmHg 88%
    03:00 +12°C° 0 mm 2 mps 735 mmHg 88%
    04:00 +12°C° 0 mm 2 mps 735 mmHg 88%
    05:00 +13°C° 0 mm 2 mps 735 mmHg 82%
    06:00 +15°C° 0 mm 2 mps 735 mmHg 77%
    07:00 +17°C° 0 mm 2 mps 735 mmHg 71%
    08:00 +18°C° 0 mm 2 mps 735 mmHg 62%
    09:00 +20°C° 0 mm 2 mps 735 mmHg 54%
    10:00 +23°C° 0 mm 2 mps 735 mmHg 45%
    11:00 +23°C° 0.1 mm 2 mps 735 mmHg 45%
    12:00 +24°C° 0.1 mm 3 mps 735 mmHg 45%
    13:00 +23°C° 0.1 mm 4 mps 734 mmHg 45%
    14:00 +22°C° 0.2 mm 4 mps 734 mmHg 50%
    15:00 +22°C° 0.2 mm 4 mps 734 mmHg 55%
    16:00 +21°C° 0.2 mm 3 mps 734 mmHg 59%
    17:00 +19°C° 0.2 mm 3 mps 734 mmHg 67%
    18:00 +17°C° 0.2 mm 3 mps 734 mmHg 75%
    19:00 +15°C° 0.2 mm 2 mps 734 mmHg 83%
    20:00 +15°C° 0 mm 2 mps 734 mmHg 83%
    21:00 +14°C° 0 mm 2 mps 734 mmHg 83%
    22:00 +13°C° 0 mm 2 mps 735 mmHg 83%
    23:00 +13°C° 0 mm 2 mps 735 mmHg 83%

    27 May, Saturday

    Time Temperature Precipitation Wind Pressure Humidity
    00:00 +13°C° 0 mm 2 mps 735 mmHg 84%
    01:00 +11°C° 0 mm 3 mps 734 mmHg 84%
    02:00 +11°C° 0 mm 3 mps 734 mmHg 84%
    03:00 +11°C° 0 mm 3 mps 734 mmHg 84%
    04:00 +12°C° 0 mm 2 mps 734 mmHg 84%
    05:00 +14°C° 0 mm 2 mps 735 mmHg 78%
    06:00 +15°C° 0 mm 2 mps 735 mmHg 72%
    07:00 +17°C° 0 mm 2 mps 735 mmHg 65%
    08:00 +19°C° 0 mm 2 mps 735 mmHg 59%
    09:00 +21°C° 0 mm 2 mps 735 mmHg 52%
    10:00 +23°C° 0 mm 2 mps 736 mmHg 45%
    11:00 +24°C° 0 mm 3 mps 735 mmHg 44%
    12:00 +23°C° 0 mm 4 mps 735 mmHg 43%
    13:00 +25°C° 0 mm 4 mps 735 mmHg 41%
    14:00 +23°C° 0 mm 4 mps 735 mmHg 43%
    15:00 +23°C° 0 mm 4 mps 735 mmHg 44%
    16:00 +23°C° 0 mm 5 mps 735 mmHg 45%
    17:00 +21°C° 0 mm 4 mps 735 mmHg 55%
    18:00 +18°C° 0 mm 4 mps 735 mmHg 64%
    19:00 +16°C° 0 mm 3 mps 736 mmHg 73%
    20:00 +16°C° 0 mm 3 mps 736 mmHg 74%
    21:00 +14°C° 0 mm 3 mps 736 mmHg 75%
    22:00 +13°C° 0 mm 3 mps 737 mmHg 76%
    23:00 +13°C° 0 mm 3 mps 737 mmHg 78%

    28 May, Sunday

    Time Temperature Precipitation Wind Pressure Humidity
    00:00 +12°C° 0 mm 3 mps 737 mmHg 79%
    01:00 +12°C° 0 mm 3 mps 737 mmHg 80%
    02:00 +12°C° 0 mm 3 mps 737 mmHg 81%
    03:00 +12°C° 0 mm 3 mps 737 mmHg 81%
    04:00 +11°C° 0 mm 3 mps 737 mmHg 81%
    05:00 +13°C° 0 mm 3 mps 737 mmHg 75%
    06:00 +16°C° 0 mm 3 mps 737 mmHg 69%
    07:00 +18°C° 0 mm 3 mps 738 mmHg 63%
    08:00 +20°C° 0 mm 3 mps 738 mmHg 58%
    09:00 +21°C° 0 mm 3 mps 738 mmHg 53%
    10:00 +24°C° 0 mm 3 mps 738 mmHg 48%
    11:00 +24°C° 0.1 mm 3 mps 738 mmHg 49%
    12:00 +23°C° 0.1 mm 4 mps 738 mmHg 50%
    13:00 +23°C° 0.1 mm 4 mps 738 mmHg 51%
    14:00 +23°C° 0.1 mm 4 mps 738 mmHg 51%
    15:00 +23°C° 0.1 mm 4 mps 738 mmHg 51%
    16:00 +23°C° 0.1 mm 4 mps 738 mmHg 51%
    17:00 +22°C° 0 mm 4 mps 738 mmHg 58%
    18:00 +20°C° 0 mm 3 mps 739 mmHg 66%
    19:00 +18°C° 0 mm 3 mps 739 mmHg 73%
    20:00 +18°C° 0 mm 3 mps 739 mmHg 76%
    21:00 +17°C° 0 mm 3 mps 740 mmHg 80%
    22:00 +16°C° 0 mm 3 mps 740 mmHg 83%
    23:00 +16°C° 0 mm 3 mps 740 mmHg 83%

    29 May, Monday

    Time Temperature Precipitation Wind Pressure Humidity
    00:00 +16°C° 0 mm 3 mps 740 mmHg 84%
    01:00 +14°C° 0 mm 4 mps 740 mmHg 85%
    02:00 +14°C° 0 mm 4 mps 740 mmHg 85%
    03:00 +14°C° 0 mm 4 mps 740 mmHg 84%
    04:00 +14°C° 0 mm 4 mps 740 mmHg 84%
    05:00 +15°C° 0 mm 4 mps 741 mmHg 77%
    06:00 +18°C° 0 mm 3 mps 741 mmHg 71%
    07:00 +19°C° 0 mm 3 mps 741 mmHg 64%
    08:00 +21°C° 0 mm 3 mps 741 mmHg 57%
    09:00 +24°C° 0 mm 3 mps 741 mmHg 51%
    10:00 +26°C° 0 mm 2 mps 741 mmHg 44%
    11:00 +27°C° 0.1 mm 3 mps 741 mmHg 42%
    12:00 +27°C° 0.1 mm 3 mps 741 mmHg 40%
    13:00 +28°C° 0.1 mm 3 mps 741 mmHg 38%
    14:00 +28°C° 0.1 mm 3 mps 740 mmHg 40%
    15:00 +27°C° 0.1 mm 3 mps 740 mmHg 42%
    16:00 +27°C° 0.1 mm 4 mps 740 mmHg 44%
    17:00 +24°C° 0.1 mm 3 mps 740 mmHg 54%
    18:00 +21°C° 0.1 mm 3 mps 740 mmHg 64%
    19:00 +18°C° 0.1 mm 3 mps 740 mmHg 74%
    20:00 +18°C° 0 mm 2 mps 741 mmHg 74%
    21:00 +17°C° 0 mm 2 mps 741 mmHg 73%
    22:00 +17°C° 0 mm 2 mps 741 mmHg 73%
    23:00 +16°C° 0 mm 2 mps 741 mmHg 74%
    Show more